| time (UTC) | temp C | wind direction | speed KPH | gust KPH | rain 1hr cm | rain 24hr cm | rain mn cm | humidity % | barometer mb |
| 20260507065503 | 11 | 138 | 0.0 | 1.6 | 0.00 | 1.42 | 0.00 | 99 | 959.9 |
| 20260507065005 | 11 | 0 | 0.0 | 0.0 | 0.00 | 1.42 | 0.00 | 99 | 959.6 |
| 20260507064503 | 11 | 0 | 0.0 | 0.0 | 0.00 | 1.42 | 0.00 | 99 | 959.7 |
| 20260507064215 | 12 | 0 | 0.0 | 0.0 | 0.00 | 1.42 | 0.00 | 99 | 959.8 |
| 20260507063503 | 12 | 0 | 0.0 | 0.0 | 0.00 | 1.42 | 0.00 | 99 | 959.7 |
| 20260507063005 | 11 | 0 | 0.0 | 0.0 | 0.00 | 1.42 | 0.00 | 99 | 959.8 |
| 20260507062714 | 11 | 0 | 0.0 | 0.0 | 0.00 | 1.42 | 0.00 | 99 | 959.7 |
| 20260507062213 | 11 | 0 | 0.0 | 0.0 | 0.00 | 1.42 | 0.00 | 99 | 959.9 |
| 20260507061505 | 10 | 0 | 0.0 | 0.0 | 0.00 | 1.42 | 0.00 | 99 | 959.6 |
| 20260507061213 | 10 | 0 | 0.0 | 0.0 | 0.00 | 1.42 | 0.00 | 99 | 959.8 |
| 20260507060714 | 10 | 0 | 0.0 | 0.0 | 0.00 | 1.42 | 0.00 | 99 | 959.5 |
| 20260507055503 | 10 | 0 | 0.0 | 0.0 | 0.00 | 1.42 | 0.00 | 99 | 959.6 |
| 20260507055005 | 10 | 0 | 0.0 | 0.0 | 0.00 | 1.42 | 0.00 | 99 | 959.5 |
| 20260507054503 | 10 | 0 | 0.0 | 0.0 | 0.00 | 1.42 | 0.00 | 99 | 959.4 |
| 20260507054005 | 9 | 0 | 0.0 | 0.0 | 0.00 | 1.42 | 0.00 | 99 | 959.7 |
| 20260507053503 | 9 | 0 | 0.0 | 0.0 | 0.00 | 1.42 | 0.00 | 99 | 959.6 |
| 20260507053214 | 9 | 0 | 0.0 | 0.0 | 0.00 | 1.42 | 0.00 | 99 | 959.3 |
| 20260507052713 | 9 | 0 | 0.0 | 0.0 | 0.00 | 1.42 | 0.00 | 99 | 959.2 |
| 20260507052003 | 8 | 0 | 0.0 | 0.0 | 0.00 | 1.42 | 0.00 | 99 | 959.3 |
| 20260507051505 | 8 | 0 | 0.0 | 0.0 | 0.00 | 1.42 | 0.00 | 99 | 959.2 |
| 20260507050505 | 8 | 0 | 0.0 | 0.0 | 0.00 | 1.42 | 0.00 | 99 | 958.9 |
| 20260507045503 | 8 | 175 | 0.0 | 3.2 | 0.00 | 1.42 | 0.00 | 99 | 958.9 |
| 20260507045005 | 8 | 165 | 0.0 | 3.2 | 0.00 | 1.42 | 0.00 | 99 | 959.0 |
| 20260507044503 | 8 | 0 | 0.0 | 0.0 | 0.00 | 1.42 | 0.00 | 99 | 959.0 |
| 20260507044214 | 8 | 203 | 0.0 | 1.6 | 0.00 | 1.42 | 0.00 | 99 | 959.0 |
| 20260507043503 | 8 | 203 | 0.0 | 1.6 | 0.00 | 1.42 | 0.00 | 99 | 959.0 |
| 20260507043004 | 8 | 0 | 0.0 | 0.0 | 0.00 | 1.42 | 0.00 | 99 | 958.9 |
| 20260507042505 | 8 | 0 | 0.0 | 0.0 | 0.00 | 1.42 | 0.00 | 99 | 959.0 |
| 20260507042214 | 8 | 0 | 0.0 | 0.0 | 0.00 | 1.42 | 0.00 | 99 | 959.1 |
| 20260507041503 | 8 | 203 | 0.0 | 3.2 | 0.00 | 1.42 | 0.00 | 99 | 958.7 |
| 20260507041005 | 8 | 202 | 0.0 | 3.2 | 0.00 | 1.42 | 0.00 | 99 | 958.8 |
| 20260507040713 | 8 | 202 | 0.0 | 3.2 | 0.00 | 1.42 | 0.00 | 99 | 958.8 |
| 20260507035713 | 8 | 208 | 0.0 | 1.6 | 0.00 | 1.42 | 0.00 | 99 | 958.7 |
| 20260507035005 | 8 | 208 | 0.0 | 1.6 | 0.00 | 1.42 | 0.00 | 99 | 958.7 |
| 20260507034503 | 8 | 208 | 0.0 | 1.6 | 0.00 | 1.42 | 0.00 | 99 | 958.7 |
| 20260507034005 | 8 | 202 | 0.0 | 3.2 | 0.00 | 1.42 | 0.00 | 99 | 958.7 |
| 20260507033503 | 8 | 201 | 0.0 | 3.2 | 0.00 | 1.42 | 0.00 | 99 | 958.5 |
| 20260507033214 | 8 | 201 | 0.0 | 3.2 | 0.00 | 1.42 | 0.00 | 99 | 958.7 |
| 20260507032505 | 8 | 0 | 0.0 | 0.0 | 0.00 | 1.42 | 0.00 | 99 | 958.9 |
| 20260507032003 | 8 | 0 | 0.0 | 0.0 | 0.00 | 1.42 | 0.00 | 99 | 958.8 |
| 20260507031503 | 8 | 168 | 0.0 | 3.2 | 0.00 | 1.42 | 0.00 | 99 | 958.6 |
| 20260507031216 | 8 | 168 | 0.0 | 3.2 | 0.00 | 1.42 | 0.00 | 99 | 958.7 |
| 20260507030712 | 8 | 157 | 0.0 | 3.2 | 0.00 | 1.42 | 0.00 | 99 | 958.7 |
| 20260507025503 | 8 | 0 | 0.0 | 0.0 | 0.00 | 1.42 | 0.00 | 99 | 958.3 |
| 20260507025005 | 8 | 0 | 0.0 | 0.0 | 0.00 | 1.42 | 0.00 | 99 | 958.5 |
| 20260507024503 | 8 | 0 | 0.0 | 0.0 | 0.00 | 1.42 | 0.00 | 99 | 958.4 |
| 20260507024003 | 8 | 0 | 0.0 | 0.0 | 0.00 | 1.42 | 0.00 | 99 | 958.6 |
| 20260507023714 | 8 | 0 | 0.0 | 0.0 | 0.00 | 1.42 | 0.00 | 99 | 958.6 |
| 20260507023003 | 9 | 105 | 0.0 | 1.6 | 0.00 | 1.42 | 0.00 | 99 | 958.4 |
| 20260507022503 | 9 | 104 | 0.0 | 1.6 | 0.00 | 1.42 | 0.00 | 99 | 958.6 |
| 20260507022005 | 9 | 103 | 0.0 | 1.6 | 0.00 | 1.42 | 0.00 | 99 | 958.5 |
| 20260507021503 | 9 | 0 | 0.0 | 0.0 | 0.00 | 1.42 | 0.00 | 99 | 958.6 |
| 20260507021005 | 9 | 0 | 0.0 | 0.0 | 0.00 | 1.42 | 0.00 | 99 | 958.6 |
| 20260507020503 | 9 | 0 | 0.0 | 0.0 | 0.00 | 1.42 | 0.00 | 99 | 958.3 |
| 20260507015503 | 9 | 75 | 0.0 | 1.6 | 0.00 | 1.42 | 0.00 | 99 | 958.5 |
| 20260507015005 | 10 | 84 | 0.0 | 1.6 | 0.00 | 1.42 | 0.00 | 99 | 958.3 |
| 20260507014503 | 10 | 114 | 0.0 | 1.6 | 0.00 | 1.42 | 0.00 | 99 | 958.5 |
| 20260507014003 | 10 | 114 | 0.0 | 1.6 | 0.00 | 1.42 | 0.00 | 99 | 958.5 |
| 20260507013505 | 10 | 0 | 0.0 | 0.0 | 0.00 | 1.42 | 0.00 | 99 | 958.2 |
| 20260507013003 | 10 | 210 | 0.0 | 1.6 | 0.00 | 1.42 | 0.00 | 99 | 958.7 |
| 20260507012503 | 10 | 210 | 0.0 | 1.6 | 0.00 | 1.42 | 0.00 | 99 | 958.5 |
| 20260507012005 | 10 | 0 | 0.0 | 0.0 | 0.00 | 1.42 | 0.00 | 99 | 958.4 |
| 20260507011503 | 10 | 210 | 0.0 | 3.2 | 0.00 | 1.42 | 0.00 | 99 | 958.4 |
| 20260507011005 | 10 | 199 | 1.6 | 4.8 | 0.00 | 1.42 | 0.00 | 99 | 958.5 |
| 20260507010503 | 10 | 184 | 0.0 | 4.8 | 0.00 | 1.42 | 0.00 | 99 | 958.5 |
| 20260507005503 | 10 | 0 | 0.0 | 0.0 | 0.00 | 1.42 | 0.00 | 99 | 958.4 |
| 20260507005005 | 10 | 150 | 0.0 | 1.6 | 0.00 | 1.42 | 0.00 | 99 | 958.4 |
| 20260507004503 | 10 | 171 | 0.0 | 3.2 | 0.00 | 1.42 | 0.00 | 99 | 958.4 |
| 20260507004213 | 10 | 179 | 0.0 | 3.2 | 0.00 | 1.42 | 0.00 | 99 | 958.3 |
| 20260507003505 | 10 | 149 | 1.6 | 4.8 | 0.00 | 1.42 | 0.00 | 99 | 958.6 |
| 20260507003213 | 10 | 154 | 1.6 | 4.8 | 0.00 | 1.42 | 0.00 | 98 | 958.4 |
| 20260507002714 | 10 | 119 | 1.6 | 4.8 | 0.00 | 1.42 | 0.00 | 98 | 958.5 |
| 20260507002005 | 11 | 112 | 1.6 | 11.3 | 0.00 | 1.42 | 0.00 | 98 | 958.6 |
| 20260507001503 | 10 | 116 | 0.0 | 4.8 | 0.00 | 1.42 | 0.00 | 98 | 958.6 |
| 20260507001214 | 10 | 126 | 0.0 | 3.2 | 0.00 | 1.42 | 0.00 | 99 | 958.4 |
| 20260507000503 | 11 | 130 | 0.0 | 3.2 | 0.00 | 1.42 | 0.00 | 98 | 958.4 |
| 20260506235504 | 11 | 150 | 0.0 | 3.2 | 0.00 | 1.42 | 0.00 | 98 | 958.7 |
| 20260506235004 | 11 | 145 | 1.6 | 9.7 | 0.00 | 1.42 | 0.00 | 97 | 958.7 |
| 20260506234505 | 11 | 153 | 1.6 | 9.7 | 0.00 | 1.42 | 0.00 | 97 | 958.6 |
| 20260506234003 | 11 | 156 | 1.6 | 6.4 | 0.00 | 1.42 | 0.00 | 98 | 958.5 |
| 20260506233503 | 11 | 146 | 0.0 | 3.2 | 0.00 | 1.42 | 0.00 | 98 | 958.6 |
| 20260506233005 | 11 | 103 | 0.0 | 3.2 | 0.00 | 1.42 | 0.00 | 98 | 958.6 |
| 20260506232503 | 11 | 105 | 0.0 | 3.2 | 0.00 | 1.42 | 0.00 | 97 | 958.5 |
| 20260506232005 | 11 | 142 | 0.0 | 4.8 | 0.00 | 1.42 | 0.00 | 97 | 958.7 |
| 20260506231503 | 11 | 144 | 0.0 | 4.8 | 0.00 | 1.42 | 0.00 | 97 | 958.7 |
| 20260506231004 | 11 | 124 | 0.0 | 3.2 | 0.00 | 1.42 | 0.00 | 97 | 959.0 |
| 20260506230503 | 11 | 141 | 1.6 | 4.8 | 0.00 | 1.42 | 0.00 | 97 | 958.7 |
| 20260506225503 | 11 | 169 | 0.0 | 3.2 | 0.00 | 1.42 | 1.42 | 98 | 958.7 |
| 20260506225216 | 11 | 118 | 0.0 | 4.8 | 0.00 | 1.42 | 1.42 | 99 | 958.7 |
| 20260506224713 | 11 | 127 | 0.0 | 4.8 | 0.00 | 1.42 | 1.42 | 99 | 958.7 |
| 20260506224214 | 11 | 153 | 0.0 | 4.8 | 0.00 | 1.42 | 1.42 | 99 | 958.9 |
| 20260506223505 | 11 | 166 | 0.0 | 3.2 | 0.00 | 1.42 | 1.42 | 99 | 958.9 |
| 20260506223003 | 11 | 177 | 0.0 | 3.2 | 0.00 | 1.42 | 1.42 | 99 | 958.8 |
| 20260506222505 | 11 | 184 | 0.0 | 3.2 | 0.00 | 1.42 | 1.42 | 99 | 959.0 |
| 20260506222214 | 11 | 184 | 0.0 | 3.2 | 0.00 | 1.42 | 1.42 | 99 | 959.0 |
| 20260506221504 | 11 | 180 | 0.0 | 1.6 | 0.00 | 1.42 | 1.42 | 99 | 958.8 |
| 20260506221005 | 11 | 189 | 0.0 | 1.6 | 0.00 | 1.42 | 1.42 | 99 | 958.8 |
| 20260506220503 | 11 | 0 | 0.0 | 0.0 | 0.00 | 1.42 | 1.42 | 99 | 958.8 |
| 20260506215503 | 11 | 58 | 0.0 | 3.2 | 0.00 | 1.42 | 1.42 | 99 | 958.7 |
| 20260506215006 | 11 | 62 | 0.0 | 3.2 | 0.00 | 1.42 | 1.42 | 99 | 958.5 |
| 20260506214713 | 10 | 217 | 0.0 | 1.6 | 0.00 | 1.42 | 1.42 | 99 | 958.9 |
| 20260506214005 | 11 | 217 | 0.0 | 1.6 | 0.00 | 1.42 | 1.42 | 99 | 958.5 |
| 20260506213503 | 11 | 0 | 0.0 | 0.0 | 0.00 | 1.42 | 1.42 | 99 | 958.6 |
| 20260506213003 | 11 | 0 | 0.0 | 0.0 | 0.00 | 1.42 | 1.42 | 99 | 958.5 |
| 20260506212714 | 11 | 199 | 0.0 | 3.2 | 0.00 | 1.42 | 1.42 | 99 | 958.4 |
| 20260506212003 | 11 | 203 | 0.0 | 3.2 | 0.00 | 1.42 | 1.42 | 99 | 958.4 |
| 20260506211505 | 11 | 214 | 0.0 | 1.6 | 0.00 | 1.42 | 1.42 | 99 | 958.7 |
| 20260506211003 | 11 | 0 | 0.0 | 0.0 | 0.00 | 1.42 | 1.42 | 99 | 958.5 |
| 20260506210505 | 11 | 0 | 0.0 | 0.0 | 0.00 | 1.42 | 1.42 | 99 | 958.6 |
| 20260506205505 | 11 | 0 | 0.0 | 0.0 | 0.00 | 1.42 | 1.42 | 99 | 958.4 |
| 20260506205003 | 11 | 0 | 0.0 | 0.0 | 0.00 | 1.42 | 1.42 | 99 | 958.4 |
| 20260506204503 | 11 | 0 | 0.0 | 0.0 | 0.00 | 1.42 | 1.42 | 99 | 958.3 |
| 20260506204005 | 12 | 0 | 0.0 | 0.0 | 0.00 | 1.42 | 1.42 | 99 | 958.1 |
| 20260506203503 | 12 | 146 | 0.0 | 1.6 | 0.00 | 1.42 | 1.42 | 99 | 958.2 |
| 20260506203003 | 12 | 59 | 0.0 | 3.2 | 0.00 | 1.42 | 1.42 | 99 | 958.0 |
| 20260506202505 | 12 | 67 | 0.0 | 3.2 | 0.00 | 1.42 | 1.42 | 99 | 958.2 |
| 20260506202003 | 12 | 101 | 0.0 | 4.8 | 0.00 | 1.42 | 1.42 | 99 | 958.0 |
| 20260506201714 | 12 | 92 | 1.6 | 4.8 | 0.00 | 1.42 | 1.42 | 99 | 958.1 |
| 20260506201004 | 12 | 104 | 1.6 | 4.8 | 0.05 | 1.42 | 1.42 | 99 | 958.2 |
| 20260506200503 | 12 | 118 | 0.0 | 4.8 | 0.18 | 1.42 | 1.42 | 99 | 958.1 |
| 20260506195503 | 12 | 119 | 0.0 | 4.8 | 0.18 | 1.42 | 1.42 | 99 | 957.9 |
| 20260506195003 | 12 | 129 | 0.0 | 4.8 | 0.20 | 1.42 | 1.42 | 99 | 957.9 |
| 20260506194505 | 12 | 160 | 0.0 | 4.8 | 0.20 | 1.42 | 1.42 | 99 | 957.9 |
| 20260506194004 | 12 | 99 | 0.0 | 6.4 | 0.20 | 1.42 | 1.42 | 99 | 957.9 |
| 20260506193714 | 12 | 99 | 0.0 | 6.4 | 0.20 | 1.42 | 1.42 | 99 | 957.9 |
| 20260506193005 | 12 | 94 | 0.0 | 3.2 | 0.28 | 1.42 | 1.42 | 99 | 957.7 |
| 20260506192714 | 12 | 78 | 0.0 | 1.6 | 0.48 | 1.42 | 1.42 | 99 | 957.8 |
| 20260506192003 | 12 | 91 | 0.0 | 3.2 | 0.53 | 1.42 | 1.42 | 99 | 957.9 |
| 20260506191505 | 12 | 57 | 0.0 | 4.8 | 0.56 | 1.42 | 1.42 | 98 | 957.7 |
| 20260506191213 | 12 | 86 | 0.0 | 4.8 | 0.53 | 1.40 | 1.40 | 98 | 957.7 |
| 20260506190505 | 12 | 99 | 0.0 | 3.2 | 0.38 | 1.27 | 1.24 | 98 | 957.8 |
| 20260506185716 | 12 | 83 | 0.0 | 3.2 | 0.38 | 1.27 | 1.24 | 98 | 957.5 |
| 20260506185003 | 12 | 93 | 0.0 | 3.2 | 0.36 | 1.24 | 1.22 | 97 | 957.4 |
| 20260506184503 | 12 | 118 | 1.6 | 11.3 | 0.36 | 1.24 | 1.22 | 97 | 957.4 |
| 20260506184005 | 12 | 107 | 3.2 | 11.3 | 0.36 | 1.24 | 1.22 | 97 | 957.2 |
| 20260506183503 | 13 | 87 | 1.6 | 9.7 | 0.36 | 1.24 | 1.22 | 97 | 957.3 |
| 20260506183213 | 13 | 81 | 1.6 | 9.7 | 0.33 | 1.22 | 1.19 | 95 | 957.4 |
| 20260506182715 | 13 | 74 | 1.6 | 4.8 | 0.08 | 0.97 | 0.94 | 95 | 957.3 |
| 20260506182212 | 12 | 79 | 1.6 | 9.7 | 0.05 | 0.94 | 0.91 | 97 | 957.0 |
| 20260506181505 | 13 | 62 | 1.6 | 9.7 | 0.00 | 0.89 | 0.86 | 95 | 957.1 |
| 20260506181003 | 12 | 49 | 0.0 | 6.4 | 0.00 | 0.89 | 0.86 | 98 | 957.0 |
| 20260506180503 | 12 | 74 | 0.0 | 4.8 | 0.00 | 0.89 | 0.86 | 99 | 956.8 |
| 20260506175503 | 12 | 65 | 0.0 | 1.6 | 0.00 | 0.89 | 0.86 | 99 | 956.8 |
| 20260506175003 | 12 | 64 | 0.0 | 3.2 | 0.00 | 0.91 | 0.86 | 99 | 956.8 |
| 20260506174505 | 12 | 73 | 0.0 | 3.2 | 0.00 | 0.91 | 0.86 | 99 | 956.8 |
| 20260506174003 | 12 | 73 | 0.0 | 3.2 | 0.00 | 0.91 | 0.86 | 99 | 956.8 |
| 20260506173505 | 12 | 0 | 0.0 | 0.0 | 0.00 | 0.94 | 0.86 | 99 | 956.9 |
| 20260506173003 | 12 | 0 | 0.0 | 0.0 | 0.00 | 0.94 | 0.86 | 99 | 956.9 |
| 20260506172505 | 12 | 78 | 0.0 | 1.6 | 0.00 | 0.94 | 0.86 | 98 | 957.0 |
| 20260506172003 | 12 | 167 | 0.0 | 3.2 | 0.00 | 0.97 | 0.86 | 98 | 957.0 |
| 20260506171504 | 13 | 177 | 0.0 | 3.2 | 0.00 | 0.97 | 0.86 | 98 | 957.3 |
| 20260506171003 | 13 | 111 | 0.0 | 9.7 | 0.00 | 0.97 | 0.86 | 98 | 957.1 |
| 20260506170503 | 13 | 98 | 1.6 | 9.7 | 0.00 | 0.97 | 0.86 | 98 | 957.0 |
| 20260506165713 | 13 | 91 | 0.0 | 1.6 | 0.00 | 0.99 | 0.86 | 98 | 957.2 |
| 20260506165214 | 13 | 0 | 0.0 | 0.0 | 0.00 | 0.99 | 0.86 | 98 | 957.2 |
| 20260506164505 | 13 | 159 | 0.0 | 1.6 | 0.00 | 0.99 | 0.86 | 98 | 957.0 |
| 20260506164003 | 13 | 127 | 0.0 | 1.6 | 0.00 | 0.99 | 0.86 | 98 | 957.0 |
| 20260506163503 | 13 | 97 | 0.0 | 1.6 | 0.00 | 0.99 | 0.86 | 98 | 957.2 |
| 20260506163216 | 13 | 95 | 0.0 | 1.6 | 0.00 | 0.99 | 0.86 | 98 | 957.3 |
| 20260506162503 | 13 | 0 | 0.0 | 0.0 | 0.00 | 1.02 | 0.86 | 98 | 957.1 |
| 20260506162005 | 13 | 105 | 0.0 | 3.2 | 0.00 | 1.02 | 0.86 | 98 | 957.3 |
| 20260506161713 | 13 | 92 | 0.0 | 3.2 | 0.00 | 1.02 | 0.86 | 98 | 957.1 |
| 20260506161003 | 13 | 86 | 0.0 | 3.2 | 0.00 | 1.02 | 0.86 | 98 | 957.5 |
| 20260506160505 | 13 | 58 | 0.0 | 1.6 | 0.00 | 1.02 | 0.86 | 98 | 957.4 |
| 20260506155503 | 13 | 60 | 0.0 | 1.6 | 0.00 | 1.02 | 0.86 | 97 | 957.4 |
| 20260506155215 | 12 | 79 | 0.0 | 1.6 | 0.00 | 1.02 | 0.86 | 97 | 957.3 |
| 20260506154714 | 12 | 113 | 0.0 | 1.6 | 0.00 | 1.02 | 0.86 | 97 | 957.3 |
| 20260506154003 | 12 | 56 | 1.6 | 4.8 | 0.00 | 1.02 | 0.86 | 97 | 957.5 |
| 20260506153505 | 12 | 49 | 1.6 | 4.8 | 0.00 | 1.02 | 0.86 | 96 | 957.5 |
| 20260506153213 | 12 | 39 | 1.6 | 4.8 | 0.00 | 1.02 | 0.86 | 96 | 957.4 |
| 20260506152505 | 12 | 35 | 0.0 | 4.8 | 0.00 | 1.02 | 0.86 | 96 | 957.6 |
| 20260506152003 | 12 | 37 | 0.0 | 4.8 | 0.00 | 1.02 | 0.86 | 97 | 957.6 |
| 20260506151714 | 12 | 39 | 0.0 | 4.8 | 0.00 | 1.02 | 0.86 | 97 | 957.6 |
| 20260506151003 | 12 | 98 | 1.6 | 4.8 | 0.00 | 1.02 | 0.86 | 97 | 957.7 |
| 20260506150503 | 12 | 102 | 1.6 | 6.4 | 0.00 | 1.02 | 0.86 | 97 | 957.5 |
| 20260506145503 | 12 | 335 | 1.6 | 11.3 | 0.08 | 1.02 | 0.86 | 97 | 957.7 |
| 20260506145003 | 12 | 15 | 1.6 | 11.3 | 0.08 | 1.02 | 0.86 | 97 | 957.8 |
| 20260506144505 | 12 | 3 | 0.0 | 3.2 | 0.08 | 1.02 | 0.86 | 96 | 957.7 |
| 20260506144003 | 12 | 304 | 0.0 | 3.2 | 0.08 | 1.02 | 0.86 | 96 | 957.7 |
| 20260506143505 | 12 | 15 | 1.6 | 3.2 | 0.08 | 1.02 | 0.86 | 96 | 957.7 |
| 20260506143003 | 12 | 41 | 1.6 | 3.2 | 0.08 | 1.02 | 0.86 | 96 | 957.7 |
| 20260506142505 | 12 | 206 | 1.6 | 6.4 | 0.08 | 1.02 | 0.86 | 96 | 957.8 |
| 20260506142213 | 12 | 264 | 1.6 | 6.4 | 0.08 | 1.02 | 0.86 | 96 | 957.8 |
| 20260506141503 | 12 | 352 | 0.0 | 3.2 | 0.08 | 1.02 | 0.86 | 96 | 957.9 |
| 20260506141005 | 12 | 0 | 0.0 | 0.0 | 0.08 | 1.02 | 0.86 | 95 | 957.8 |
| 20260506140503 | 12 | 120 | 0.0 | 1.6 | 0.08 | 1.02 | 0.86 | 95 | 957.9 |
| 20260506135505 | 12 | 359 | 0.0 | 1.6 | 0.03 | 0.94 | 0.79 | 94 | 957.9 |
| 20260506135003 | 12 | 6 | 0.0 | 3.2 | 0.03 | 0.94 | 0.79 | 94 | 958.1 |
| 20260506134505 | 12 | 332 | 1.6 | 6.4 | 0.03 | 0.94 | 0.79 | 94 | 958.2 |
| 20260506134213 | 12 | 276 | 1.6 | 6.4 | 0.03 | 0.94 | 0.79 | 94 | 958.2 |
| 20260506133505 | 13 | 274 | 0.0 | 1.6 | 0.03 | 0.94 | 0.79 | 94 | 958.1 |
| 20260506133212 | 13 | 259 | 0.0 | 3.2 | 0.03 | 0.94 | 0.79 | 94 | 958.1 |
| 20260506132715 | 13 | 163 | 1.6 | 4.8 | 0.03 | 0.94 | 0.79 | 94 | 958.2 |
| 20260506132003 | 13 | 114 | 0.0 | 4.8 | 0.03 | 0.94 | 0.79 | 92 | 958.3 |
| 20260506131503 | 13 | 226 | 0.0 | 3.2 | 0.03 | 0.94 | 0.79 | 94 | 958.1 |
| 20260506131005 | 13 | 206 | 1.6 | 6.4 | 0.03 | 0.94 | 0.79 | 95 | 958.1 |
| 20260506130503 | 12 | 224 | 1.6 | 11.3 | 0.03 | 0.94 | 0.79 | 95 | 958.4 |
| 20260506125505 | 12 | 6 | 1.6 | 11.3 | 0.00 | 0.91 | 0.76 | 95 | 958.3 |
| 20260506125003 | 12 | 171 | 1.6 | 11.3 | 0.00 | 0.91 | 0.76 | 95 | 958.3 |
| 20260506124505 | 12 | 140 | 1.6 | 11.3 | 0.00 | 0.91 | 0.76 | 95 | 958.1 |
| 20260506124003 | 12 | 34 | 1.6 | 9.7 | 0.00 | 0.91 | 0.76 | 96 | 958.4 |
| 20260506123503 | 12 | 17 | 1.6 | 4.8 | 0.00 | 0.91 | 0.76 | 97 | 958.2 |
| 20260506123005 | 12 | 82 | 1.6 | 9.7 | 0.00 | 0.91 | 0.76 | 96 | 958.2 |
| 20260506122503 | 12 | 127 | 1.6 | 9.7 | 0.00 | 0.91 | 0.76 | 97 | 958.4 |
| 20260506122003 | 12 | 82 | 1.6 | 9.7 | 0.03 | 0.91 | 0.76 | 96 | 958.2 |
| 20260506121505 | 12 | 77 | 1.6 | 4.8 | 0.05 | 0.91 | 0.76 | 96 | 958.2 |
| 20260506121214 | 12 | 79 | 1.6 | 4.8 | 0.08 | 0.91 | 0.76 | 97 | 958.3 |
| 20260506120505 | 12 | 86 | 0.0 | 4.8 | 0.08 | 0.91 | 0.76 | 97 | 958.2 |
| 20260506115505 | 12 | 62 | 0.0 | 3.2 | 0.08 | 0.91 | 0.76 | 97 | 958.4 |
| 20260506115214 | 12 | 61 | 0.0 | 3.2 | 0.08 | 0.91 | 0.76 | 97 | 958.5 |
| 20260506114505 | 12 | 72 | 0.0 | 3.2 | 0.08 | 0.91 | 0.76 | 97 | 958.3 |
| 20260506114003 | 12 | 9 | 1.6 | 6.4 | 0.08 | 0.91 | 0.76 | 96 | 958.3 |
| 20260506113505 | 12 | 39 | 1.6 | 6.4 | 0.08 | 0.91 | 0.76 | 96 | 958.6 |
| 20260506113003 | 12 | 41 | 0.0 | 3.2 | 0.08 | 0.91 | 0.76 | 96 | 958.2 |
| 20260506112503 | 12 | 341 | 0.0 | 3.2 | 0.08 | 0.91 | 0.76 | 96 | 958.4 |
| 20260506112216 | 12 | 344 | 0.0 | 3.2 | 0.05 | 0.89 | 0.74 | 96 | 958.6 |
| 20260506111713 | 12 | 270 | 1.6 | 4.8 | 0.03 | 0.86 | 0.71 | 96 | 958.5 |
| 20260506111214 | 12 | 315 | 1.6 | 4.8 | 0.00 | 0.84 | 0.69 | 95 | 958.6 |
| 20260506110715 | 12 | 359 | 1.6 | 4.8 | 0.00 | 0.84 | 0.69 | 95 | 958.6 |
| 20260506105505 | 12 | 57 | 1.6 | 9.7 | 0.03 | 0.84 | 0.69 | 94 | 958.8 |
| 20260506105003 | 12 | 65 | 1.6 | 4.8 | 0.03 | 0.84 | 0.69 | 94 | 958.8 |
| 20260506104714 | 12 | 63 | 1.6 | 4.8 | 0.03 | 0.84 | 0.69 | 94 | 958.8 |
| 20260506104213 | 12 | 36 | 1.6 | 4.8 | 0.05 | 0.84 | 0.69 | 96 | 958.8 |
| 20260506103714 | 12 | 72 | 1.6 | 4.8 | 0.15 | 0.84 | 0.69 | 95 | 958.8 |
| 20260506103003 | 12 | 54 | 1.6 | 4.8 | 0.18 | 0.84 | 0.69 | 94 | 958.8 |
| 20260506102505 | 12 | 37 | 0.0 | 3.2 | 0.20 | 0.84 | 0.69 | 96 | 958.9 |
| 20260506102003 | 12 | 30 | 1.6 | 3.2 | 0.25 | 0.84 | 0.69 | 96 | 958.9 |
| 20260506101503 | 12 | 65 | 1.6 | 3.2 | 0.28 | 0.84 | 0.69 | 95 | 958.9 |
| 20260506101005 | 12 | 99 | 0.0 | 3.2 | 0.30 | 0.84 | 0.69 | 96 | 959.0 |
| 20260506100503 | 12 | 108 | 0.0 | 3.2 | 0.36 | 0.84 | 0.69 | 96 | 959.1 |
| 20260506095503 | 12 | 65 | 0.0 | 4.8 | 0.38 | 0.81 | 0.66 | 97 | 959.3 |
| 20260506095215 | 12 | 72 | 1.6 | 4.8 | 0.41 | 0.81 | 0.66 | 97 | 959.2 |
| 20260506094503 | 12 | 87 | 1.6 | 3.2 | 0.43 | 0.81 | 0.66 | 96 | 959.4 |
| 20260506094005 | 12 | 181 | 1.6 | 6.4 | 0.41 | 0.74 | 0.58 | 95 | 959.3 |
| 20260506093504 | 12 | 193 | 1.6 | 6.4 | 0.41 | 0.69 | 0.53 | 95 | 959.5 |
| 20260506093004 | 12 | 69 | 0.0 | 4.8 | 0.43 | 0.66 | 0.51 | 96 | 959.4 |
| 20260506092505 | 12 | 85 | 0.0 | 3.2 | 0.43 | 0.64 | 0.48 | 96 | 959.3 |
| 20260506092003 | 13 | 103 | 1.6 | 9.7 | 0.41 | 0.58 | 0.43 | 95 | 959.4 |
| 20260506091503 | 12 | 95 | 3.2 | 11.3 | 0.41 | 0.56 | 0.41 | 94 | 959.4 |
| 20260506091215 | 12 | 93 | 1.6 | 11.3 | 0.38 | 0.53 | 0.38 | 94 | 959.2 |
| 20260506090503 | 12 | 94 | 0.0 | 4.8 | 0.33 | 0.48 | 0.33 | 96 | 959.4 |
| 20260506085503 | 12 | 99 | 0.0 | 3.2 | 0.28 | 0.43 | 0.28 | 97 | 959.3 |
| 20260506085005 | 12 | 82 | 0.0 | 1.6 | 0.25 | 0.41 | 0.25 | 97 | 959.1 |
| 20260506084503 | 13 | 87 | 0.0 | 3.2 | 0.23 | 0.38 | 0.23 | 96 | 959.1 |
| 20260506084005 | 13 | 85 | 0.0 | 3.2 | 0.18 | 0.33 | 0.18 | 96 | 959.2 |
| 20260506083504 | 13 | 101 | 0.0 | 1.6 | 0.13 | 0.28 | 0.13 | 95 | 959.0 |
| 20260506083215 | 13 | 74 | 0.0 | 3.2 | 0.08 | 0.23 | 0.08 | 95 | 959.0 |
| 20260506082503 | 13 | 74 | 1.6 | 3.2 | 0.05 | 0.20 | 0.05 | 92 | 958.8 |
| 20260506082213 | 13 | 85 | 0.0 | 3.2 | 0.05 | 0.20 | 0.05 | 92 | 958.9 |
| 20260506081505 | 13 | 208 | 0.0 | 4.8 | 0.00 | 0.15 | 0.00 | 92 | 958.9 |
| 20260506081003 | 13 | 105 | 0.0 | 3.2 | 0.00 | 0.15 | 0.00 | 90 | 958.8 |
| 20260506080505 | 13 | 135 | 0.0 | 1.6 | 0.00 | 0.15 | 0.00 | 92 | 958.7 |
| 20260506073505 | 13 | 219 | 1.6 | 4.8 | 0.00 | 0.15 | 0.00 | 90 | 958.7 |
| 20260506073003 | 13 | 157 | 0.0 | 4.8 | 0.00 | 0.15 | 0.00 | 91 | 958.6 |
| 20260506072503 | 14 | 173 | 0.0 | 4.8 | 0.00 | 0.15 | 0.00 | 90 | 958.6 |
| 20260506072005 | 13 | 195 | 0.0 | 3.2 | 0.00 | 0.15 | 0.00 | 90 | 958.5 |
| 20260506071503 | 13 | 92 | 0.0 | 3.2 | 0.00 | 0.15 | 0.00 | 93 | 958.9 |
| 20260506071005 | 12 | 196 | 0.0 | 1.6 | 0.00 | 0.15 | 0.00 | 95 | 958.9 |
| 20260506070713 | 12 | 101 | 0.0 | 1.6 | 0.00 | 0.15 | 0.00 | 96 | 958.8 |